Meteo Giornale » Osservazioni meteo Stati Uniti (USA) » Fremont

ore: 16:35 - Osservazioni Meteo Fremont
Lat. 41° 27' N Lon. 96° 31' W Alt. 379 metri s.l.m.

sereno

33 °C

Sereno

Temp. 24 Ore

22 °C

33 °C

Sud

13 Km/h

Dew point 21 °C

Umidità 49 %

Visibilità  10 Km

Il sole sorge alle ore 06:52

Il sole tramonta alle ore 19:59

Data e Ora Cielo e Fenomeni T °C DP °C Um. % Pres. hPa Vis. km Vento km/h
Oggi h: 16:35 sereno Sereno 33 21 49 1011 10 S 13
Oggi h: 16:15 sereno Sereno 33 21 49 1012 10 S 13
Oggi h: 15:55 sereno Sereno 33 20 46 1011 10 S/SE 16.7
Oggi h: 15:35 sereno Sereno 32 20 49 1012 10 S 20.3
Oggi h: 15:10 sereno Sereno 32 20 49 1012 10 SE 14.8
Oggi h: 14:55 sereno Sereno 32 20 49 1012 10 S/SE 14.8
Oggi h: 14:35 sereno Sereno 32 20 49 1013 11 S 14.8
Oggi h: 14:15 sereno Sereno 32 20 49 1013 10 SE 13
Oggi h: 13:55 sereno Sereno 31 20 52 1013 10 SE 14.8
Oggi h: 13:35 sereno Sereno 31 19 48 1013 10 SE 11.1
Oggi h: 13:15 sereno Sereno 31 20 52 1013 10 SE 11.1
Oggi h: 12:55 sereno Sereno 32 19 46 1013 10 E 13
Oggi h: 12:35 sereno Sereno 31 19 48 1013 10 NE 13
Oggi h: 12:15 sereno Sereno 30 19 51 1014 10 N 5.5
Oggi h: 11:55 sereno Sereno 30 19 51 1014 10 SE 7.4
Oggi h: 11:35 sereno Sereno 29 19 54 1014 10 N 0
Oggi h: 11:15 sereno Sereno 29 19 54 1014 10 N 0
Oggi h: 10:55 sereno Sereno 28 18 54 1014 10 N 0
Oggi h: 10:35 sereno Sereno 28 19 58 1014 10 N 0
Oggi h: 10:15 sereno Sereno 28 19 58 1014 10 N 0
Oggi h: 09:55 sereno Sereno 28 19 58 1014 10 N 0
Oggi h: 09:35 sereno Sereno 27 19 61 1014 10 N 0
Oggi h: 09:15 sereno Sereno 26 19 65 1014 10 N 5.5
Oggi h: 08:55 nuvoloso Nuvoloso 25 19 69 1014 10 N 0
Oggi h: 08:35 nuvoloso Nuvoloso 24 21 83 1014 10 N 0
Oggi h: 08:15 sereno Sereno 23 22 94 1014 10 N 0
Oggi h: 07:55 sereno Sereno 22 21 94 1014 10 N 0
Oggi h: 07:35 sereno Sereno 22 21 94 1014 10 N 0
Oggi h: 07:15 sereno Sereno 22 21 94 1013 10 N 5.5
Oggi h: 06:55 sereno Sereno 23 21 88 1013 10 N 0
Oggi h: 06:35 sereno Sereno 23 21 88 1013 10 N 0
Oggi h: 06:15 nuvoloso Nuvoloso 24 21 83 1013 10 N 0
Oggi h: 05:55 molto_nuvoloso Molto Nuvoloso 24 22 88 1013 10 SE 9.3
Oggi h: 05:35 molto_nuvoloso Molto Nuvoloso 24 22 88 1013 10 SE 7.4
Oggi h: 05:15 nuvoloso Nuvoloso 24 22 88 1013 10 SE 11.1
Oggi h: 04:55 nuvoloso Nuvoloso 24 22 88 1013 10 E/SE 7.4
Oggi h: 04:35 sereno Sereno 24 22 88 1013 10 E/SE 7.4
Oggi h: 04:15 sereno Sereno 24 22 88 1013 10 E/SE 11.1
Oggi h: 03:55 nuvoloso Nuvoloso 23 22 94 1014 10 N 5.5
Oggi h: 03:35 nuvoloso Nuvoloso 24 22 88 1014 10 N 0
Oggi h: 03:15 nuvoloso Nuvoloso 24 22 88 1014 10 N 0
Oggi h: 02:55 molto_nuvoloso Molto Nuvoloso 25 23 88 1014 10 N 0
Oggi h: 02:35 coperto Coperto 25 23 88 1014 10 N 5.5
Oggi h: 02:15 molto_nuvoloso Molto Nuvoloso 24 22 88 1014 10 N 0
Oggi h: 01:55 molto_nuvoloso Molto Nuvoloso 24 22 88 1014 10 N 0
Oggi h: 01:35 molto_nuvoloso Molto Nuvoloso 24 22 88 1014 10 N 5.5
Oggi h: 01:15 molto_nuvoloso Molto Nuvoloso 24 22 88 1014 10 N 0
Oggi h: 00:55 coperto Coperto 26 23 83 1014 10 N 0
Oggi h: 00:35 coperto Coperto 25 23 88 1014 10 N 5.5
Oggi h: 00:15 coperto Coperto 25 23 88 1014 10 N 0
Ieri h: 23:55 coperto Coperto 25 23 88 1014 10 N 0
Ieri h: 23:35 coperto Coperto 25 23 88 1014 10 N 0
Ieri h: 23:15 molto_nuvoloso Molto Nuvoloso 24 23 94 1014 10 N 0
Ieri h: 22:55 molto_nuvoloso Molto Nuvoloso 24 22 88 1014 10 N 0
Ieri h: 22:35 nuvoloso Nuvoloso 25 23 88 1014 10 N 0
Ieri h: 22:15 sereno Sereno 26 23 83 1014 10 N 0
Ieri h: 21:55 sereno Sereno 25 23 88 1014 10 N 0
Ieri h: 21:35 sereno Sereno 26 23 83 1014 10 N 0
Ieri h: 21:15 sereno Sereno 27 23 78 1014 10 N 0
Ieri h: 20:55 sereno Sereno 28 23 74 1013 10 N 5.5
Ieri h: 20:35 sereno Sereno 28 23 74 1013 10 N 0
Ieri h: 20:15 sereno Sereno 29 22 66 1013 10 N 5.5
Ieri h: 19:55 sereno Sereno 29 23 70 1013 10 N 5.5
Ieri h: 19:35 sereno Sereno 30 22 62 1013 10 N 0
Ieri h: 19:15 sereno Sereno 30 22 62 1013 10 N 0
Ieri h: 18:55 nuvoloso Nuvoloso 31 22 58 1013 10 N 0
Ieri h: 18:35 nuvoloso Nuvoloso 31 23 62 1013 10 N 0
Ieri h: 18:15 nuvoloso Nuvoloso 31 22 58 1013 10 N 0
Ieri h: 17:55 sereno Sereno 30 22 62 1013 10 N 5.5
Ieri h: 17:35 sereno Sereno 31 23 62 1013 10 N 0